STATION HISTORICAL DATA FROM WUNDERGROUND.COM FOR HIGH PARK VILLAGE,TORONTO,ON,CANADA
 
Daily Summary for November 20, 2018 Units:  Metric    English   Both
Next Day »
Daily Weekly Monthly Yearly Custom
  Current: High: Low: Average:
Temperature: -0.6 °C 3.6 °C -0.6 °C 2.3 °C
Dew Point: -2.4 °C -1.7 °C -3.2 °C -2.7 °C
Humidity: 87% 87% 62% 71%
Wind Speed: 5.6km/h 9.3km/h 0km/h 2.4km/h
Wind Gust: 4.2km/h 4.7km/h - -
WindNNW - - WNW
Pressure: 1013.4 hPa 1013.4 hPa 1012.4 hPa -
Precipitation: 0 mm      
Historical Graphs
 
 
Tabular Data for November 20, 2018
Time Temperature Dew Point Pressure Wind Wind Speed Wind Gust Humidity Rainfall Rate (Hourly) Solar Conditions
00:04 3.4 °C -3 °C 1013.4 hPa Calm     63% 0 mm 0.00 W/m2
00:09 3.4 °C -3 °C 1013.4 hPa Calm     63% 0 mm 0.00 W/m2
00:14 3.4 °C -2.9 °C 1013.4 hPa Calm     63% 0 mm 0.00 W/m2
00:19 3.4 °C -2.7 °C 1013.4 hPa Calm     64% 0 mm 0.00 W/m2
00:24 3.5 °C -2.7 °C 1013.4 hPa Calm     64% 0 mm 0.00 W/m2
00:29 3.5 °C -2.7 °C 1013.4 hPa Calm     64% 0 mm 0.00 W/m2
00:34 3.6 °C -2.6 °C 1013.1 hPa Calm     64% 0 mm 0.00 W/m2
00:39 3.6 °C -2.6 °C 1013.4 hPa Calm     64% 0 mm 0.00 W/m2
00:44 3.6 °C -2.6 °C 1013.1 hPa Calm     64% 0 mm 0.00 W/m2
00:49 3.6 °C -2.8 °C 1013.1 hPa Calm     63% 0 mm 0.00 W/m2
00:54 3.6 °C -2.8 °C 1013.1 hPa Calm     63% 0 mm 0.00 W/m2
00:59 3.4 °C -3.2 °C 1013.1 hPa Calm     62% 0 mm 0.00 W/m2
01:04 3.4 °C -3.2 °C 1013.1 hPa Calm     62% 0 mm 0.00 W/m2
01:09 3.4 °C -3.2 °C 1013.1 hPa Calm     62% 0 mm 0.00 W/m2
01:14 3.4 °C -3.2 °C 1013.1 hPa Calm     62% 0 mm 0.00 W/m2
01:19 3.4 °C -3.2 °C 1013.1 hPa Calm     62% 0 mm 0.00 W/m2
01:24 3.4 °C -3.2 °C 1013.1 hPa Calm     62% 0 mm 0.00 W/m2
01:29 3.4 °C -3.2 °C 1013.1 hPa Calm     62% 0 mm 0.00 W/m2
01:34 3.4 °C -3.2 °C 1013.1 hPa Calm     62% 0 mm 0.00 W/m2
01:39 3.5 °C -2.9 °C 1013.1 hPa Calm     63% 0 mm 0.00 W/m2
01:44 3.5 °C -2.9 °C 1013.1 hPa Calm     63% 0 mm 0.00 W/m2
01:49 3.6 °C -2.8 °C 1013.1 hPa Calm     63% 0 mm 0.00 W/m2
01:54 3.6 °C -2.8 °C 1013.1 hPa Calm     63% 0 mm 0.00 W/m2
01:59 3.6 °C -2.8 °C 1013.1 hPa Calm     63% 0 mm 0.00 W/m2
02:04 3.6 °C -2.8 °C 1013.1 hPa Calm     63% 0 mm 0.00 W/m2
02:09 3.5 °C -2.9 °C 1013.1 hPa Calm     63% 0 mm 0.00 W/m2
02:14 3.4 °C -2.9 °C 1013.1 hPa Calm     63% 0 mm 0.00 W/m2
02:19 3.4 °C -2.8 °C 1012.8 hPa Calm     64% 0 mm 0.00 W/m2
02:24 3.3 °C -3.1 °C 1012.8 hPa Calm     63% 0 mm 0.00 W/m2
02:29 3.2 °C -3 °C 1012.8 hPa Calm     64% 0 mm 0.00 W/m2
02:34 3.1 °C -3.1 °C 1012.8 hPa Calm     64% 0 mm 0.00 W/m2
02:39 3.1 °C -3.1 °C 1012.8 hPa Calm     64% 0 mm 0.00 W/m2
02:44 2.9 °C -3 °C 1012.8 hPa Calm     65% 0 mm 0.00 W/m2
02:49 2.9 °C -3 °C 1012.8 hPa Calm     65% 0 mm 0.00 W/m2
02:54 2.9 °C -3 °C 1012.8 hPa Calm     65% 0 mm 0.00 W/m2
02:59 2.9 °C -3 °C 1012.8 hPa Calm     65% 0 mm 0.00 W/m2
03:04 2.9 °C -3.1 °C 1012.8 hPa Calm     65% 0 mm 0.00 W/m2
03:09 2.9 °C -3.1 °C 1012.8 hPa Calm     65% 0 mm 0.00 W/m2
03:14 2.9 °C -3.1 °C 1012.8 hPa Calm     65% 0 mm 0.00 W/m2
03:19 2.9 °C -3.1 °C 1012.8 hPa Calm     65% 0 mm 0.00 W/m2
03:24 2.9 °C -3.1 °C 1012.8 hPa Calm     65% 0 mm 0.00 W/m2
03:29 2.9 °C -3.1 °C 1012.8 hPa Calm     65% 0 mm 0.00 W/m2
03:34 2.9 °C -2.8 °C 1012.8 hPa Calm     66% 0 mm 0.00 W/m2
03:39 2.9 °C -2.8 °C 1012.8 hPa Calm     66% 0 mm 0.00 W/m2
03:44 2.8 °C -2.9 °C 1012.8 hPa SSW 1.9 km/h 0.3 km/h 66% 0 mm 0.00 W/m2
03:49 2.9 °C -2.8 °C 1012.8 hPa WSW 1.9 km/h 0.2 km/h 66% 0 mm 0.00 W/m2
03:54 2.8 °C -2.9 °C 1012.8 hPa Calm     66% 0 mm 0.00 W/m2
03:59 2.8 °C -2.7 °C 1012.8 hPa NW 1.9 km/h 0.6 km/h 67% 0 mm 0.00 W/m2
04:04 2.6 °C -2.7 °C 1012.8 hPa NW 1.9 km/h   68% 0 mm 0.00 W/m2
04:09 2.4 °C -2.7 °C 1012.8 hPa SSW 5.6 km/h   69% 0 mm 0.00 W/m2
04:14 2.3 °C -2.6 °C 1012.4 hPa NW 3.7 km/h 0.6 km/h 70% 0 mm 0.00 W/m2
04:19 2.1 °C -2.8 °C 1012.4 hPa Calm     70% 0 mm 0.00 W/m2
04:24 2 °C -2.7 °C 1012.4 hPa NNW 1.9 km/h 0.2 km/h 71% 0 mm 0.00 W/m2
04:29 1.9 °C -2.8 °C 1012.4 hPa North 3.7 km/h 1.1 km/h 71% 0 mm 0.00 W/m2
04:34 1.8 °C -2.7 °C 1012.8 hPa NNW 3.7 km/h 1.4 km/h 72% 0 mm 0.00 W/m2
04:39 1.7 °C -2.7 °C 1012.4 hPa NNW 5.6 km/h 2.1 km/h 73% 0 mm 0.00 W/m2
04:44 1.5 °C -2.8 °C 1012.4 hPa NW 7.4 km/h 3.1 km/h 73% 0 mm 0.00 W/m2
04:49 1.4 °C -2.7 °C 1012.4 hPa NNW 5.6 km/h 2.6 km/h 74% 0 mm 0.00 W/m2
04:54 1.2 °C -2.8 °C 1012.4 hPa ENE 5.6 km/h 1.9 km/h 75% 0 mm 0.00 W/m2
04:59 1.1 °C -2.6 °C 1012.4 hPa NNE 5.6 km/h 1 km/h 77% 0 mm 0.00 W/m2
05:04 0.9 °C -2.4 °C 1012.4 hPa NNW 5.6 km/h 2.3 km/h 78% 0 mm 0.00 W/m2
05:09 0.9 °C -2.3 °C 1012.4 hPa NNW 5.6 km/h 3.1 km/h 79% 0 mm 0.00 W/m2
05:14 0.8 °C -2.2 °C 1012.8 hPa NNW 5.6 km/h 3.2 km/h 80% 0 mm 0.00 W/m2
05:19 0.8 °C -2.1 °C 1012.8 hPa NW 5.6 km/h 2.6 km/h 81% 0 mm 0.00 W/m2
05:24 0.7 °C -2 °C 1012.8 hPa NW 5.6 km/h 2.1 km/h 82% 0 mm 0.00 W/m2
05:29 0.7 °C -1.8 °C 1012.8 hPa NNW 6.4 km/h 2.7 km/h 83% 0 mm 0.00 W/m2
05:34 0.7 °C -1.7 °C 1012.8 hPa NW 5.6 km/h 3.1 km/h 84% 0 mm 0.00 W/m2
05:39 0.7 °C -1.7 °C 1012.8 hPa WNW 5.6 km/h 3.4 km/h 84% 0 mm 0.00 W/m2
05:44 0.6 °C -1.8 °C 1012.8 hPa NNW 9.3 km/h 4 km/h 84% 0 mm 0.00 W/m2
05:49 0.6 °C -1.7 °C 1012.8 hPa NNW 5.6 km/h 1.4 km/h 85% 0 mm 0.00 W/m2
05:54 0.5 °C -1.7 °C 1012.8 hPa North 7.4 km/h 3.1 km/h 85% 0 mm 0.00 W/m2
05:59 0.4 °C -1.7 °C 1012.8 hPa NW 7.4 km/h 3.2 km/h 86% 0 mm 0.00 W/m2
06:04 0.3 °C -1.7 °C 1012.8 hPa WNW 5.6 km/h 2.6 km/h 86% 0 mm 0.00 W/m2
06:09 0.3 °C -1.8 °C 1013.1 hPa NW 7.4 km/h 3.9 km/h 86% 0 mm 0.00 W/m2
06:14 0.2 °C -1.8 °C 1013.1 hPa North 7.4 km/h 3.9 km/h 86% 0 mm 0.00 W/m2
06:19 0.2 °C -1.9 °C 1013.1 hPa North 3.7 km/h 1.4 km/h 86% 0 mm 0.00 W/m2
06:24 0.2 °C -1.7 °C 1013.1 hPa NW 5.6 km/h 2.4 km/h 87% 0 mm 0.00 W/m2
06:29 0.2 °C -1.7 °C 1013.1 hPa West 5.6 km/h 2.4 km/h 87% 0 mm 0.00 W/m2
06:34 -0.1 °C -1.9 °C 1013.1 hPa WNW 5.6 km/h 4.5 km/h 87% 0 mm 0.00 W/m2
06:39 -0.3 °C -2.2 °C 1013.4 hPa East 7.4 km/h 4.7 km/h 87% 0 mm 0.00 W/m2
06:44 -0.5 °C -2.4 °C 1013.4 hPa WNW 7.4 km/h 4 km/h 87% 0 mm 0.00 W/m2
06:49 -0.6 °C -2.4 °C 1013.4 hPa NNW 5.6 km/h 4.2 km/h 87% 0 mm 0.00 W/m2
High Park Village Arhives